Location: Saint Mary
(48.7436°N, 113.4291°W)
Time: 12:41:54
(UTC+00:00)

X-37B - Visible Passes

Search period start: 22 January 2022 00:00
Search period end: 01 February 2022 00:00
Orbit: 334 x 337 km, 45.0° (Epoch: 11 January)

Date Brightness Start Highest point End Pass type
(mag) Time Alt. Az. Time Alt. Az. Time Alt. Az.
27 Jan 3.3 02:27:21 10° S 02:27:26 10° S 02:27:26 10° S visible
28 Jan 3.3 02:46:45 10° SW 02:47:10 13° SSW 02:47:10 13° SSW visible
29 Jan 2.7 01:32:49 10° S 01:34:23 14° SSE 01:35:38 11° SE visible
29 Jan 3.8 03:06:45 10° WSW 03:06:51 11° WSW 03:06:51 11° WSW visible
30 Jan 1.9 01:52:12 10° SW 01:54:33 23° SSE 01:55:16 21° SE visible
31 Jan 1.4 02:12:11 10° WSW 02:14:47 33° S 02:14:53 33° SSE visible
